TimeMDT,TemperatureF,Dew PointF,Humidity,Sea Level PressureIn,VisibilityMPH,Wind Direction,Wind SpeedMPH,Gust SpeedMPH,PrecipitationIn,Events,Conditions,WindDirDegrees,DateUTC
12:15 AM,48.2,30.2,50,29.92,10.0,SSW,3.5,-,N/A,,Overcast,210,2012-10-20 06:15:00
12:35 AM,48.2,30.2,50,29.91,10.0,WSW,6.9,-,N/A,,Overcast,240,2012-10-20 06:35:00
12:55 AM,48.2,30.2,50,29.91,10.0,SW,9.2,-,N/A,,Overcast,230,2012-10-20 06:55:00
1:15 AM,48.2,30.2,50,29.91,10.0,SSW,6.9,-,N/A,,Overcast,210,2012-10-20 07:15:00
1:35 AM,48.2,30.2,50,29.91,10.0,SSW,10.4,-,N/A,,Overcast,200,2012-10-20 07:35:00
2:15 AM,48.2,28.4,46,29.89,10.0,South,8.1,-,N/A,,Overcast,190,2012-10-20 08:15:00
2:35 AM,48.2,26.6,43,29.88,10.0,South,10.4,-,N/A,,Overcast,190,2012-10-20 08:35:00
2:55 AM,46.4,28.4,50,29.88,10.0,SW,6.9,-,N/A,,Overcast,220,2012-10-20 08:55:00
3:15 AM,48.2,26.6,43,29.87,10.0,SSW,9.2,-,N/A,,Overcast,200,2012-10-20 09:15:00
3:35 AM,48.2,26.6,43,29.86,10.0,South,9.2,-,N/A,,Overcast,190,2012-10-20 09:35:00
3:55 AM,48.2,26.6,43,29.84,10.0,South,8.1,-,N/A,,Overcast,190,2012-10-20 09:55:00
4:15 AM,50.0,24.8,37,29.84,10.0,SSW,11.5,17.3,N/A,,Overcast,200,2012-10-20 10:15:00
4:35 AM,51.8,24.8,35,29.83,10.0,SSW,8.1,-,N/A,,Overcast,210,2012-10-20 10:35:00
4:55 AM,50.0,24.8,37,29.84,10.0,SW,8.1,-,N/A,,Overcast,220,2012-10-20 10:55:00
5:15 AM,51.8,23.0,33,29.83,10.0,SSW,6.9,-,N/A,,Overcast,200,2012-10-20 11:15:00
5:35 AM,51.8,23.0,33,29.82,10.0,WSW,5.8,-,N/A,,Overcast,250,2012-10-20 11:35:00
5:55 AM,50.0,23.0,35,29.81,10.0,South,9.2,-,N/A,,Overcast,190,2012-10-20 11:55:00
6:15 AM,51.8,23.0,33,29.81,10.0,SSW,10.4,-,N/A,,Overcast,200,2012-10-20 12:15:00
6:35 AM,51.8,23.0,33,29.80,10.0,SSW,6.9,-,N/A,,Overcast,200,2012-10-20 12:35:00
6:52 AM,51.8,23.0,33,29.80,10.0,South,5.8,-,N/A,,Mostly Cloudy,180,2012-10-20 12:52:00
7:56 AM,51.8,24.8,35,29.79,10.0,South,13.8,23.0,N/A,,Mostly Cloudy,170,2012-10-20 13:56:00
8:52 AM,53.6,28.4,38,29.80,10.0,South,13.8,23.0,N/A,,Overcast,190,2012-10-20 14:52:00
9:57 AM,53.6,30.2,41,29.80,10.0,SSW,16.1,21.9,N/A,,Overcast,200,2012-10-20 15:57:00
10:51 AM,51.8,35.6,54,29.81,10.0,SSW,16.1,23.0,N/A,,Mostly Cloudy,210,2012-10-20 16:51:00
11:54 AM,53.6,33.8,47,29.80,10.0,SW,17.3,28.8,N/A,,Overcast,220,2012-10-20 17:54:00
12:51 PM,53.6,33.8,47,29.79,10.0,SSW,17.3,34.5,N/A,Rain,Rain,210,2012-10-20 18:51:00
1:51 PM,51.8,37.4,58,29.77,10.0,South,15.0,-,N/A,,Mostly Cloudy,180,2012-10-20 19:51:00
2:51 PM,53.6,35.6,51,29.76,10.0,SSW,16.1,26.5,N/A,,Mostly Cloudy,210,2012-10-20 20:51:00
3:52 PM,55.4,32.0,41,29.77,10.0,SW,16.1,28.8,N/A,,Mostly Cloudy,220,2012-10-20 21:52:00
4:51 PM,55.4,30.2,38,29.77,10.0,SSW,15.0,29.9,N/A,,Mostly Cloudy,200,2012-10-20 22:51:00
5:53 PM,51.8,30.2,44,29.77,10.0,SW,23.0,32.2,N/A,,Scattered Clouds,220,2012-10-20 23:53:00
6:51 PM,50.0,28.4,43,29.77,10.0,SSW,12.7,19.6,N/A,,Scattered Clouds,210,2012-10-21 00:51:00
7:54 PM,50.0,28.4,43,29.77,10.0,South,10.4,21.9,N/A,,Scattered Clouds,190,2012-10-21 01:54:00
8:51 PM,48.2,30.2,50,29.78,10.0,South,13.8,18.4,N/A,,Mostly Cloudy,180,2012-10-21 02:51:00
8:55 PM,48.2,30.2,50,29.78,10.0,South,13.8,18.4,N/A,,Overcast,180,2012-10-21 02:55:00
9:15 PM,48.2,30.2,50,29.79,10.0,SSW,11.5,19.6,N/A,,Overcast,210,2012-10-21 03:15:00
9:35 PM,48.2,30.2,50,29.79,10.0,South,10.4,-,N/A,,Overcast,180,2012-10-21 03:35:00
9:55 PM,48.2,30.2,50,29.78,10.0,SSE,11.5,21.9,N/A,,Overcast,160,2012-10-21 03:55:00
10:15 PM,48.2,28.4,46,29.79,10.0,South,16.1,19.6,N/A,,Overcast,190,2012-10-21 04:15:00
10:35 PM,48.2,28.4,46,29.79,10.0,South,12.7,-,N/A,,Overcast,190,2012-10-21 04:35:00
10:55 PM,48.2,28.4,46,29.79,10.0,South,12.7,-,N/A,,Overcast,170,2012-10-21 04:55:00
11:15 PM,48.2,28.4,46,29.80,10.0,South,9.2,-,N/A,,Overcast,180,2012-10-21 05:15:00
11:35 PM,48.2,28.4,46,29.79,10.0,South,12.7,-,N/A,,Overcast,170,2012-10-21 05:35:00
11:55 PM,46.4,28.4,50,29.79,10.0,South,10.4,-,N/A,,Overcast,170,2012-10-21 05:55:00